Akureyri, Iceland

9:03 PM GMT on September 20, 2019 (GMT +0000)
Akureyri

Weather History for BIAR - August, 2019

Change the Weather History Date:

Sunday, August 25, 2019

  Actual Average (WUND) Record (WUND)
Temperature  
Mean Temperature 52 °F -  
Max Temperature 57 °F 51 °F - (-1)
Min Temperature 46 °F 39 °F - (-1)
Degree Days  
Heating Degree Days 14    
Growing Degree Days 2 (Base 50)    
Moisture  
Dew Point 45 °F    
Average Humidity 81    
Maximum Humidity 93    
Minimum Humidity 55    
Precipitation  
Precipitation 0.01 in 0.05 in - ()
Sea Level Pressure  
Sea Level Pressure 29.65 in    
Wind  
Wind Speed 4 mph ()    
Max Wind Speed 15 mph    
Max Gust Speed -    
Visibility 7.9 miles    
Events Fog , Rain    
Averages and records for this station are not official NWS values.
T = Trace of Precipitation, MM = Missing Value Source: Averaged Metar Reports

Daily Weather History Graph

Daily Weather History Graph

Search for Another Location

Airport or City:

Astronomy

Aug. 25, 2019 Rise Set
Actual Time 5:24 AM GMT 9:01 PM GMT
Civil Twilight 4:22 AM GMT 10:03 PM GMT
Nautical Twilight 2:34 AM GMT 11:46 PM GMT
Astronomical Twilight Sun does not set Sun does not set
Moon 10:47 PM GMT (8/25) 7:01 PM GMT (8/25)
Length of Visible Light 17h 41m
Length of Day
15h 36m
Waning Crescent, 31% of the Moon is Illuminated
Aug 25
Waning Crescent
Aug 30
New
Sep 6
First Quarter
Sep 14
Full
Sep 22
Last Quarter

Hourly Weather History & Observations

Time (GMT) Temp. Windchill Dew Point Humidity Pressure Visibility Wind Dir Wind Speed Gust Speed Precip Events Conditions
12:00 AM 48 °F - 47 °F 93% 29.86 in 16 mi NW 5.8 mph - -   Overcast
12:00 AM 48.2 °F - 44.6 °F 87% 29.86 in 6.2 mi WNW 5.8 mph - N/A   Overcast
1:00 AM 46.4 °F 44.3 °F 44.6 °F 93% 29.86 in 6.2 mi WNW 4.6 mph - N/A   Overcast
2:00 AM 46.4 °F 44.3 °F 44.6 °F 93% 29.86 in 6.2 mi WNW 4.6 mph - N/A   Overcast
3:00 AM 47 °F - 46 °F 93% 29.85 in 16 mi NW 2.3 mph - -   Overcast
3:00 AM 46.4 °F 45.2 °F 44.6 °F 93% 29.83 in 6.2 mi NNW 3.5 mph - N/A   Overcast
5:00 AM 46.4 °F - 44.6 °F 93% 29.80 in 3.7 mi Calm Calm - N/A   Overcast
6:00 AM 47 °F - 46 °F 93% 29.80 in 12 mi Calm Calm - - Rain Light Drizzle
6:00 AM 46.4 °F - 44.6 °F 93% 29.80 in 6.2 mi Variable 2.3 mph - N/A   Overcast
7:00 AM 46.4 °F - 44.6 °F 93% 29.80 in 6.2 mi Calm Calm - N/A   Overcast
8:00 AM 48.2 °F - 44.6 °F 87% 29.77 in 6.2 mi NNE 2.3 mph - N/A   Overcast
9:00 AM 48 °F - 46 °F 90% 29.75 in 19 mi Calm Calm - - Fog Patches of Fog
9:00 AM 48.2 °F - 44.6 °F 87% 29.74 in 6.2 mi SSE 3.5 mph - N/A   Overcast
10:00 AM 48.2 °F - 44.6 °F 87% 29.71 in 6.2 mi Calm Calm - N/A   Scattered Clouds
10:34 AM 50.0 °F - 44.6 °F 82% 29.68 in 6.2 mi North 5.8 mph - N/A   Scattered Clouds
11:00 AM 50.0 °F - 46.4 °F 87% 29.68 in 6.2 mi NNE 5.8 mph - N/A   Scattered Clouds
12:00 PM 52 °F - 46 °F 75% 29.69 in 31 mi ESE 1.2 mph - -   Mostly Cloudy
12:00 PM 51.8 °F - 44.6 °F 76% 29.65 in 6.2 mi ESE 3.5 mph - N/A   Partly Cloudy
1:00 PM 51.8 °F - 44.6 °F 76% 29.62 in 6.2 mi Variable 1.2 mph - N/A Rain Light Rain
2:00 PM 51.8 °F - 46.4 °F 82% 29.62 in 6.2 mi South 8.1 mph - N/A Rain Light Rain
3:00 PM 53 °F - 47 °F 75% 29.59 in 16 mi ESE 3.5 mph - - Rain Light Rain
3:00 PM 51.8 °F - 46.4 °F 82% 29.59 in 6.2 mi East 4.6 mph - N/A   Light Drizzle
4:00 PM 53.6 °F - 44.6 °F 72% 29.53 in 6.2 mi Variable 2.3 mph - N/A   Mostly Cloudy
5:00 PM 53.6 °F - 46.4 °F 77% 29.47 in 6.2 mi North 9.2 mph - N/A   Scattered Clouds
6:00 PM 55 °F - 45 °F 59% 29.44 in 25 mi West 4.6 mph - -   Partly Cloudy
6:00 PM 57.2 °F - 41.0 °F 55% 29.44 in 6.2 mi Variable 4.6 mph - N/A   Scattered Clouds
7:00 PM 57.2 °F - 41.0 °F 55% 29.39 in 6.2 mi ESE 9.2 mph - N/A   Partly Cloudy
8:00 PM 55.4 °F - 41.0 °F 58% 29.36 in - East 15.0 mph - N/A   Clear
10:00 PM 51.8 °F - 41.0 °F 67% 29.33 in 6.2 mi SSE 6.9 mph - N/A Rain Light Rain
11:02 PM 51.8 °F - 42.8 °F 71% 29.27 in 6.2 mi Variable 5.8 mph - N/A   Partly Cloudy